Location: Sungai Bunut
(2.6333°N, 113.7333°E)
Time: 01:47:31
(UTC+00:00)

S-56A Canister/Altair - Pass Details

Date: 03 December 2023
Orbit: 640 x 2488 km, 38.9° (Epoch: 24 February)

Event Time Altitude Azimuth Distance (km) Brightness Sun altitude
Rises 10:58:41 0° 331° (NNW) 3,861 11.2 -11.2°
Reaches altitude 10° 11:01:20 10° 341° (NNW) 3,129 10.6 -11.8°
Maximum altitude 11:08:32 35° 45° (NE) 2,303 9.5 -13.4°
Drops below altitude 10° 11:18:44 10° 106° (ESE) 4,475 11.0 -15.8°
Sets 11:23:18 0° 114° (ESE) 5,733 11.6 -16.9°
